CW0775 Weather Reports


time (UTC)temp
F
wind
direction
speed
knots
gust
knots
rain 1hr
in
rain 24hr
in
rain mn
in
humidity
%
barometer
mb
20260506041506 52 272 0.0 0.0 0.00 0.10 0.00 99 1005.1
20260506040506 52 273 0.0 0.0 0.00 0.10 0.00 99 1005.1
20260506034006 52 272 0.0 0.0 0.00 0.10 0.00 99 1005.3
20260506033506 52 273 0.0 0.0 0.00 0.10 0.00 99 1005.4
20260506033006 51 267 0.0 0.0 0.00 0.10 0.00 99 1005.4
20260506031506 50 271 0.0 0.0 0.00 0.10 0.00 98 1005.4
20260506031005 50 273 0.0 0.0 0.00 0.10 0.00 98 1005.4
20260506030505 50 273 0.0 0.0 0.00 0.10 0.00 98 1005.4
20260506030005 50 271 0.0 0.0 0.00 0.10 0.00 98 1005.4
20260506024504 50 271 0.0 0.0 0.00 0.10 0.00 98 1005.3
20260506024005 50 271 0.0 0.0 0.00 0.10 0.00 98 1005.4
20260506023506 50 271 0.0 0.0 0.00 0.10 0.00 98 1005.4
20260506023005 51 266 0.0 1.7 0.00 0.10 0.00 98 1005.4
20260506021505 51 259 0.0 1.7 0.00 0.10 0.00 98 1005.3
20260506021005 51 272 0.9 2.6 0.00 0.10 0.00 98 1005.4
20260506020005 52 261 0.0 0.0 0.00 0.10 0.00 97 1005.2
20260506014506 53 274 0.0 0.0 0.00 0.10 0.00 97 1005.6
20260506014005 53 274 0.0 0.0 0.00 0.10 0.00 97 1005.8
20260506013506 53 274 0.0 0.0 0.00 0.10 0.00 97 1005.5
20260506013005 53 276 0.0 0.0 0.00 0.10 0.00 97 1005.4
20260506011505 54 285 0.0 0.0 0.00 0.10 0.00 97 1005.8
20260506011005 54 274 0.0 0.0 0.00 0.10 0.00 97 1006.1
20260506010505 54 273 0.0 1.7 0.00 0.10 0.00 97 1005.8
20260506004505 53 265 0.0 0.0 0.00 0.10 0.00 97 1006.1
20260506004005 53 268 0.0 0.0 0.00 0.10 0.00 97 1006.0
20260506003506 53 268 0.0 0.0 0.00 0.10 0.00 97 1005.9
20260506003005 52 279 0.0 0.0 0.00 0.10 0.00 98 1005.8
20260506001505 52 266 0.0 0.0 0.00 0.10 0.00 97 1006.1
20260506000505 53 264 0.0 0.0 0.00 0.10 0.00 97 1006.1
20260506000004 53 264 0.0 0.0 0.00 0.10 0.00 97 1006.1
20260505234505 54 264 0.0 0.0 0.00 0.10 0.00 97 1006.1
20260505234005 54 265 0.0 0.0 0.00 0.10 0.00 97 1006.1
20260505233506 54 267 0.9 2.6 0.00 0.10 0.00 97 1006.1
20260505233005 54 264 0.0 1.7 0.00 0.10 0.00 97 1006.1
20260505231505 55 274 0.0 0.0 0.00 0.10 0.00 97 1006.1
20260505231004 55 282 0.0 0.0 0.00 0.10 0.00 97 1006.1
20260505230506 55 282 0.0 0.0 0.00 0.10 0.00 97 1006.1
20260505224505 55 279 0.0 0.0 0.00 0.10 0.00 97 1006.4
20260505224004 55 273 0.0 1.7 0.00 0.10 0.00 97 1006.4
20260505223506 55 278 0.0 0.0 0.00 0.10 0.00 97 1006.1
20260505223005 55 279 0.0 2.6 0.00 0.10 0.00 97 1006.4
20260505221505 56 280 0.0 1.7 0.00 0.10 0.00 97 1006.4
20260505221005 56 286 0.0 0.0 0.00 0.10 0.00 97 1006.4
20260505214505 56 276 0.0 0.0 0.00 0.10 0.10 97 1006.4
20260505213506 57 277 0.0 0.0 0.00 0.10 0.10 97 1006.4
20260505213004 57 276 0.0 0.0 0.00 0.10 0.10 97 1006.4
20260505211506 57 273 0.0 0.0 0.00 0.10 0.10 97 1006.4
20260505211005 57 271 0.0 0.0 0.00 0.10 0.10 97 1006.7
20260505210504 57 270 0.0 0.0 0.00 0.10 0.10 97 1006.8
20260505210004 57 268 0.0 0.0 0.00 0.10 0.10 96 1006.7
20260505204504 57 268 0.0 0.0 0.00 0.10 0.10 96 1006.7
20260505201506 57 264 0.0 0.0 0.00 0.10 0.10 96 1006.8
20260505200004 57 264 0.0 0.0 0.00 0.10 0.10 96 1006.8
20260505194504 57 264 0.0 0.0 0.00 0.10 0.10 96 1006.8
20260505194005 57 279 0.0 0.0 0.00 0.10 0.10 96 1006.5
20260505193505 57 274 0.0 0.0 0.00 0.10 0.10 96 1006.6
20260505193005 57 273 0.0 0.0 0.00 0.10 0.10 96 1006.4
20260505191505 58 273 0.0 0.0 0.00 0.10 0.10 96 1006.2
20260505191004 58 274 0.0 0.0 0.00 0.10 0.10 96 1006.4
20260505190005 58 248 0.0 0.0 0.00 0.10 0.10 96 1006.4
20260505184004 58 247 0.0 0.0 0.00 0.10 0.10 96 1006.4
20260505183505 58 246 0.0 0.0 0.00 0.10 0.10 96 1006.4
20260505181505 58 240 0.0 0.0 0.00 0.10 0.10 95 1006.4
20260505180504 58 265 0.0 0.0 0.00 0.10 0.10 95 1006.4
20260505180005 58 227 0.0 0.0 0.00 0.10 0.10 95 1006.8
20260505174005 59 248 0.0 0.0 0.00 0.10 0.10 94 1006.4
20260505173505 59 250 0.0 0.0 0.00 0.10 0.10 94 1006.4
20260505173004 59 236 0.0 0.0 0.00 0.10 0.10 94 1006.5
20260505171004 59 262 0.0 0.0 0.00 0.10 0.10 93 1006.8
20260505170504 59 262 0.0 0.0 0.00 0.10 0.10 93 1006.8
20260505170004 59 208 0.0 1.7 0.01 0.10 0.10 93 1006.4
20260505164504 59 261 0.0 0.0 0.01 0.10 0.10 93 1006.8
20260505164004 59 267 0.0 0.0 0.01 0.10 0.10 93 1006.6
20260505163505 59 261 0.0 0.0 0.01 0.10 0.10 93 1006.8
20260505163004 59 277 0.0 0.0 0.01 0.10 0.10 93 1006.8
20260505161004 59 277 0.0 0.0 0.03 0.10 0.10 93 1006.8
20260505160505 59 271 0.0 0.0 0.03 0.10 0.10 93 1006.8
20260505153004 59 267 0.0 2.6 0.04 0.09 0.09 93 1007.1
20260505151505 59 251 0.0 1.7 0.03 0.08 0.08 92 1007.1
20260505151004 59 280 0.0 1.7 0.03 0.07 0.07 92 1007.1
20260505150504 60 280 0.0 0.0 0.03 0.07 0.07 92 1007.1
20260505124504 61 262 0.9 2.6 0.01 0.01 0.01 86 1007.8
20260505124005 61 314 0.9 2.6 0.01 0.01 0.01 85 1007.8
20260505123504 62 292 1.7 2.6 0.01 0.01 0.01 85 1007.8
20260505123004 62 261 0.0 4.3 0.01 0.01 0.01 85 1008.1
20260505121504 64 259 0.0 1.7 0.00 0.00 0.00 80 1007.8
20260505121004 64 315 0.9 2.6 0.00 0.00 0.00 78 1007.8
20260505120503 65 283 0.9 2.6 0.00 0.00 0.00 75 1007.8
20260505114504 65 229 0.9 2.6 0.00 0.00 0.00 71 1007.8
20260505114004 65 319 1.7 2.6 0.00 0.00 0.00 71 1007.8
20260505113504 65 273 1.7 4.3 0.00 0.00 0.00 70 1007.8
20260505113005 65 246 2.6 6.1 0.00 0.00 0.00 70 1007.8
20260505111504 65 289 1.7 2.6 0.00 0.00 0.00 71 1008.1
20260505111003 65 276 2.6 4.3 0.00 0.00 0.00 70 1008.1
20260505110504 65 247 0.0 2.6 0.00 0.00 0.00 69 1008.1
20260505101004 65 272 0.0 1.7 0.00 0.00 0.00 71 1008.5
20260505100504 65 276 0.9 2.6 0.00 0.00 0.00 71 1008.5
20260505100004 65 258 0.0 0.0 0.00 0.00 0.00 70 1008.2
20260505094504 65 212 0.0 2.6 0.00 0.00 0.00 68 1008.5
20260505094004 65 209 1.7 2.6 0.00 0.00 0.00 68 1008.5
20260505093505 65 267 0.0 2.6 0.00 0.00 0.00 69 1008.5
20260505093004 65 157 0.9 4.3 0.00 0.00 0.00 68 1008.5
20260505091506 65 98 1.7 4.3 0.00 0.00 0.00 70 1008.5
20260505091006 65 233 0.0 1.7 0.00 0.00 0.00 71 1008.5
20260505090507 64 297 0.0 4.3 0.00 0.00 0.00 70 1008.6
20260505090006 64 279 1.7 4.3 0.00 0.00 0.00 71 1008.7
20260505084506 65 281 0.0 1.7 0.00 0.00 0.00 71 1008.8
20260505084005 64 254 0.0 1.7 0.00 0.00 0.00 77 1008.5
20260505083006 63 310 0.9 4.3 0.00 0.00 0.00 76 1008.8
20260505081506 62 274 3.5 4.3 0.00 0.00 0.00 79 1008.8
20260505080506 63 275 2.6 4.3 0.00 0.00 0.00 78 1008.8
20260505080005 63 283 2.6 4.3 0.00 0.00 0.00 79 1008.8
20260505074505 63 283 2.6 4.3 0.00 0.00 0.00 80 1008.9
20260505074006 63 197 0.9 6.1 0.00 0.00 0.00 79 1008.9
20260505073507 64 203 0.9 6.1 0.00 0.00 0.00 78 1008.8
20260505073005 64 238 0.0 1.7 0.00 0.00 0.00 78 1009.1
20260505071507 61 155 0.9 1.7 0.00 0.00 0.00 82 1009.1
20260505071005 61 196 0.0 2.6 0.00 0.00 0.00 82 1009.1
20260505070505 61 220 0.0 2.6 0.00 0.00 0.00 82 1009.1
20260505064505 64 220 0.0 2.6 0.00 0.00 0.00 79 1009.4
20260505064005 64 105 1.7 2.6 0.00 0.00 0.00 78 1009.3
20260505063506 62 233 0.0 2.6 0.00 0.00 0.00 79 1009.5
20260505063005 62 240 0.0 2.6 0.00 0.00 0.00 81 1009.5
20260505061506 58 292 0.0 0.0 0.00 0.00 0.00 87 1009.7
20260505061006 57 287 0.0 0.0 0.00 0.00 0.00 89 1009.5
20260505060005 55 284 0.0 0.0 0.00 0.00 0.00 93 1009.7
20260505054505 53 284 0.0 1.7 0.00 0.00 0.00 94 1009.5
20260505054006 53 276 0.0 0.0 0.00 0.00 0.00 95 1009.5
20260505053506 53 276 0.0 0.0 0.00 0.00 0.00 95 1009.7
20260505053005 53 276 0.0 0.0 0.00 0.00 0.00 95 1009.5
20260505051506 53 275 0.0 0.0 0.00 0.00 0.00 95 1009.1
20260505051005 53 275 0.0 0.0 0.00 0.00 0.00 95 1009.5
20260505050505 53 275 0.0 0.0 0.00 0.00 0.00 95 1009.4